Location: Recife
(8.0585°S, 34.8848°W)
Time: 13:26:55
(UTC-03:00)

Vanguard 1 - Pass Details

Date: 18 April 2026
Orbit: 654 x 3817 km, 34.3° (Epoch: 11 May)

Event Time Altitude Azimuth Distance (km) Brightness Sun altitude
Rises 22:10:14 0° 283° (WNW) 7,150 14.7 -72.8°
Reaches altitude 10° 22:18:02 10° 301° (WNW) 6,576 14.3 -74.7°
Maximum altitude 22:30:27 17° 335° (NNW) 6,279 14.1 -77.7°
Drops below altitude 10° 22:43:19 10° 10° (N) 6,720 14.2 -80.7°
Sets 22:51:46 0° 29° (NNE) 7,343 14.5 -82.7°
